Flag Weather past 2 weeks in Lubango, Angola

Now
95 °F

Scattered clouds.


Feels Like: 93 °F
Forecast: 61 / 68 °F
Wind: 5 mph from East

Location: Ondangwa

Current Time: Nov 24, 2014 at 1:40:56 PM

Latest Report: Nov 24, 2014 at 1:00 PM


Visibility: N/A

Pressure: 29.95 "Hg

Humidity: 25%

Dew point: 54 °F

Location of LubangoLocation

Historic Weather in Lubango — Graph

°F

Lubango temperature yesterday

Maximum temperature yesterday: 95 °F (at 2:00 PM)
Minimum temperature yesterday: 70 °F (at 5:00 AM)
Average temperature yesterday: 83 °F

Past Weeks' High & Low Weather Summary

 TemperatureHumidityPressure
High95 °F (Nov 14, 2:00 PM)88% (Nov 11, 2:00 AM)30.09 "Hg (Nov 11, 2:00 AM)
Low66 °F (Nov 17, 3:00 AM)11% (Nov 21, 11:00 AM)29.86 "Hg (Nov 9, 6:00 PM)
Average80 °F44%29.98 "Hg
* Reported Nov 9 12:00 Noon — Nov 24 12:00 Noon, Lubango, Weather by CustomWeather, © 2014

Note: Actual official high and low records may vary slightly from our data, if they occured in-between our weather recording intervals... More about our weather records

Advertising

Lubango weather history for previous 24 hours

 ConditionsComfort  
Time TempWeatherWind HumidityBarometerVisibility
12:00 PM
Nov 24
95 °FScattered clouds.7 mph25%29.98 "HgN/A
10:00 AM91 °FSunny.3 mph28%30.04 "Hg10 mi
8:00 AM82 °FSunny.5 mph28%30.01 "Hg10 mi
6:00 AM72 °FClear.1 mph33%30.01 "Hg10 mi
5:00 AM72 °FClear.3 mph36%29.98 "Hg10 mi
4:00 AM73 °FMild.No wind31%29.95 "HgN/A
3:00 AM73 °FMild.1 mph31%29.98 "HgN/A
2:00 AM75 °FMild.3 mph36%29.98 "HgN/A
1:00 AM75 °FMild.7 mph44%30.01 "HgN/A
12:00 AM77 °FWarm.3 mph54%29.98 "HgN/A
11:00 PM
Nov 23
81 °FWarm.7 mph48%29.98 "HgN/A
10:00 PM82 °FWarm.10 mph45%29.98 "HgN/A
9:00 PM82 °FWarm.3 mph42%29.98 "HgN/A
8:00 PM84 °FPleasantly warm.5 mph37%29.95 "HgN/A
7:00 PM86 °FPleasantly warm.3 mph33%29.92 "HgN/A
6:00 PM91 °FHot.3 mph26%29.89 "HgN/A
5:00 PM93 °FExtremely hot.2 mph24%29.89 "HgN/A
4:00 PM91 °FHot.2 mph26%29.89 "HgN/A
3:00 PM95 °FExtremely hot.3 mph23%29.92 "HgN/A
2:00 PM95 °FExtremely hot.5 mph25%29.95 "HgN/A
1:00 PM93 °FExtremely hot.6 mph28%29.98 "HgN/A
Weather by CustomWeather, © 2014

See weather overviewHow to use our weather pages